QPF
0.00 0.00 0.00 0.00 0.00 0.00 0.00 0.00 0.00 0.00 0.00 0.00 0.00 0.00 0.00 0.00 0.00 0.00 0.00 0.00 0.00 0.00 0.00 0.00 0.00 0.00 0.00 0.00 0.00 0.00 0.00 0.00 0.00 0.00 0.00 0.00 0.00 0.00 0.00 0.00 0.00 0.00 0.00 0.00 0.00
0.00 0.00 0.00 0.00 0.00 0.00 0.00 0.00 0.00 0.00 0.00 0.00 0.00 0.00 0.00 0.00 0.00 0.00 0.00 0.00 0.00 0.00 0.00 0.00 0.00 0.00 0.00 0.00 0.00 0.00 0.01 0.00 0.00 0.00 0.00 0.00 0.00 0.00 0.00 0.00 0.00 0.00 0.00 0.00 0.00
0.00 0.00 0.00 0.00 0.00 0.00 0.00 0.00 0.00 0.00 0.00 0.00 0.00 0.00 0.00 0.00 0.00 0.00 0.00 0.00 0.00 0.00 0.00 0.00 0.00 0.00 0.00 0.00 0.00 0.00 0.01 0.00 0.00 0.00 0.00 0.00 0.00 0.00 0.00 0.00 0.00 0.00 0.00 0.00 0.00
0.00 0.00 0.00 0.00 0.00 0.00 0.00 0.00 0.00 0.00 0.00 0.00 0.00 0.00 0.00 0.00 0.00 0.00 0.00 0.00 0.00 0.00 0.00 0.00 0.00 0.00 0.00 0.00 0.00 0.00 0.00 0.00 0.00 0.00 0.00 0.01 0.00 0.00 0.00 0.00 0.00 0.00 0.00 0.00 0.00
0.00 0.00 0.00 0.00 0.00 0.00 0.00 0.00 0.00 0.00 0.00 0.00 0.00 0.00 0.00 0.00 0.00 0.00 0.00 0.00 0.00 0.00 0.00 0.00 0.00 0.00 0.00 0.00 0.00 0.00 0.00 0.00 0.00 0.00 0.00 0.00 0.00 0.00 0.00 0.00 0.00 0.00 0.00 0.00 0.00
0.00 0.00 0.00 0.00 0.00 0.00 0.00 0.00 0.00 0.00 0.00 0.00 0.00 0.00 0.00 0.00 0.00 0.00 0.00 0.00 0.00 0.00 0.00 0.00 0.00 0.00 0.00 0.00 0.00 0.00 0.00 0.00 0.00 0.00 0.00 0.00 0.00 0.00 0.00 0.00 0.00 0.00 0.00 0.00 0.00
0.00 0.00 0.00 0.00 0.00 0.00 0.00 0.00 0.00 0.00 0.00 0.00 0.00 0.00 0.00 0.00 0.00 0.00 0.00 0.00 0.00 0.00 0.00 0.00 0.00 0.00 0.00 0.00 0.00 0.00 0.00 0.00 0.00 0.00 0.00 0.00 0.00 0.00 0.00 0.00 0.00 0.00 0.00 0.00 0.00
0.00 0.00 0.00 0.00 0.00 0.00 0.00 0.00 0.00 0.00 0.00 0.00 0.00 0.00 0.00 0.00 0.00 0.00 0.00 0.00 0.00 0.00 0.00 0.00 0.00 0.00 0.00 0.00 0.00 0.00 0.00 0.00 0.00 0.00 0.00 0.00 0.00 0.00 0.00 0.00 0.00 0.00 0.00 0.00 0.00
0.00 0.00 0.00 0.00 0.00 0.00 0.00 0.00 0.00 0.00 0.00 0.00 0.00 0.00 0.00 0.00 0.00 0.00 0.00 0.00 0.00 0.00 0.00 0.00 0.00 0.00 0.00 0.00 0.00 0.00 0.00 0.00 0.00 0.00 0.00 0.00 0.01 0.00 0.00 0.00 0.00 0.00 0.00 0.00 0.00
0.00 0.00 0.00 0.00 0.00 0.00 0.00 0.00 0.00 0.00 0.00 0.00 0.00 0.00 0.00 0.00 0.00 0.00 0.00 0.00 0.00 0.00 0.00 0.00 0.00 0.00 0.00 0.00 0.00 0.00 0.00 0.00 0.00 0.00 0.00 0.00 0.01 0.01 0.00 0.00 0.00 0.00 0.00 0.00 0.00
0.00 0.00 0.00 0.00 0.00 0.00 0.00 0.00 0.00 0.00 0.00 0.00 0.00 0.00 0.00 0.00 0.00 0.00 0.00 0.00 0.00 0.00 0.00 0.00 0.00 0.00 0.00 0.00 0.00 0.00 0.00 0.00 0.00 0.00 0.00 0.00 0.00 0.00 0.00 0.00 0.00 0.00 0.00 0.00 0.00
0.00 0.00 0.00 0.00 0.00 0.00 0.00 0.00 0.00 0.00 0.00 0.00 0.00 0.00 0.00 0.00 0.00 0.00 0.00 0.00 0.00 0.00 0.00 0.00 0.00 0.00 0.00 0.00 0.00 0.00 0.00 0.00 0.00 0.00 0.00 0.00 0.00 0.00 0.00 0.00 0.00 0.00 0.00 0.00 0.00
0.00 0.00 0.00 0.00 0.00 0.00 0.00 0.00 0.00 0.00 0.00 0.00 0.00 0.00 0.00 0.00 0.00 0.00 0.00 0.00 0.00 0.00 0.00 0.00 0.00 0.00 0.00 0.00 0.00 0.00 0.00 0.00 0.00 0.00 0.00 0.00 0.00 0.00 0.00 0.00 0.00 0.00 0.00 0.00 0.00
0.00 0.00 0.00 0.00 0.00 0.00 0.00 0.00 0.00 0.00 0.00 0.00 0.00 0.00 0.00 0.00 0.00 0.00 0.00 0.00 0.00 0.00 0.00 0.00 0.00 0.00 0.00 0.00 0.00 0.00 0.00 0.00 0.00 0.00 0.00 0.00 0.00 0.00 0.00 0.00 0.00 0.00 0.00 0.00 0.00
0.00 0.00 0.00 0.00 0.00 0.00 0.00 0.00 0.00 0.00 0.00 0.00 0.00 0.00 0.00 0.00 0.00 0.00 0.00 0.00 0.00 0.00 0.00 0.00 0.00 0.00 0.00 0.00 0.00 0.00 0.00 0.00 0.00 0.00 0.00 0.00 0.00 0.00 0.00 0.00 0.00 0.00 0.00 0.00 0.00
0.00 0.00 0.00 0.00 0.00 0.00 0.00 0.00 0.00 0.00 0.00 0.00 0.00 0.00 0.00 0.00 0.00 0.00 0.00 0.00 0.00 0.00 0.00 0.00 0.00 0.00 0.00 0.00 0.00 0.00 0.00 0.00 0.00 0.00 0.00 0.00 0.00 0.00 0.00 0.00 0.00 0.00 0.00 0.00 0.00
0.00 0.00 0.00 0.00 0.00 0.00 0.00 0.00 0.00 0.00 0.00 0.00 0.00 0.00 0.00 0.00 0.00 0.00 0.00 0.00 0.00 0.00 0.00 0.00 0.00 0.00 0.00 0.00 0.00 0.00 0.00 0.00 0.00 0.00 0.00 0.00 0.00 0.00 0.00 0.00 0.00 0.00 0.00 0.00 0.00
0.00 0.00 0.00 0.00 0.00 0.00 0.00 0.00 0.00 0.00 0.00 0.00 0.00 0.00 0.00 0.00 0.00 0.00 0.00 0.00 0.00 0.00 0.00 0.00 0.00 0.00 0.00 0.00 0.00 0.00 0.00 0.00 0.00 0.00 0.00 0.00 0.00 0.00 0.00 0.00 0.00 0.00 0.00 0.00 0.00
0.00 0.00 0.00 0.00 0.00 0.00 0.00 0.00 0.00 0.00 0.00 0.00 0.00 0.00 0.00 0.00 0.00 0.00 0.00 0.00 0.00 0.00 0.00 0.00 0.00 0.00 0.00 0.00 0.00 0.00 0.00 0.00 0.00 0.00 0.00 0.00 0.00 0.00 0.00 0.00 0.00 0.00 0.00 0.00 0.00
0.00 0.00 0.00 0.00 0.00 0.00 0.00 0.00 0.00 0.00 0.00 0.00 0.00 0.00 0.00 0.00 0.00 0.00 0.00 0.00 0.00 0.00 0.00 0.00 0.00 0.00 0.00 0.00 0.00 0.00 0.00 0.00 0.00 0.00 0.00 0.00 0.00 0.00 0.00 0.00 0.00 0.00 0.00 0.00 0.00
0.00 0.00 0.00 0.00 0.00 0.00 0.00 0.00 0.00 0.00 0.00 0.00 0.00 0.00 0.00 0.00 0.00 0.00 0.00 0.00 0.00 0.00 0.00 0.00 0.00 0.00 0.00 0.00 0.00 0.00 0.00 0.00 0.00 0.00 0.00 0.00 0.00 0.00 0.00 0.00 0.00 0.00 0.00 0.00 0.00
0.00 0.00 0.00 0.00 0.00 0.00 0.00 0.00 0.00 0.00 0.00 0.00 0.00 0.00 0.00 0.00 0.00 0.00 0.00 0.00 0.00 0.00 0.00 0.00 0.00 0.00 0.00 0.00 0.00 0.00 0.00 0.00 0.00 0.00 0.00 0.00 0.00 0.00 0.00 0.00 0.00 0.00 0.00 0.00 0.00
0.00 0.00 0.00 0.00 0.00 0.00 0.00 0.00 0.00 0.00 0.00 0.01 0.02 0.01 0.00 0.00 0.00 0.00 0.00 0.00 0.00 0.00 0.00 0.00 0.00 0.00 0.00 0.00 0.00 0.00 0.00 0.00 0.00 0.00 0.00 0.00 0.00 0.00 0.00 0.00 0.00 0.00 0.00 0.00 0.00
0.00 0.00 0.00 0.00 0.00 0.00 0.00 0.00 0.00 0.00 0.00 0.00 0.03 0.01 0.00 0.00 0.00 0.00 0.00 0.00 0.00 0.00 0.00 0.00 0.00 0.00 0.00 0.00 0.00 0.00 0.00 0.00 0.00 0.00 0.00 0.00 0.00 0.00 0.00 0.00 0.00 0.00 0.00 0.00 0.00
0.00 0.00 0.00 0.00 0.00 0.00 0.00 0.00 0.01 0.02 0.00 0.00 0.05 0.01 0.02 0.01 0.01 0.00 0.00 0.00 0.00 0.00 0.00 0.00 0.00 0.00 0.00 0.00 0.00 0.00 0.00 0.00 0.00 0.00 0.00 0.00 0.00 0.00 0.00 0.00 0.00 0.00 0.00 0.00 0.00
0.01 0.01 0.01 0.00 0.00 0.00 0.00 0.01 0.03 0.03 0.00 0.01 0.03 0.01 0.01 0.01 0.01 0.01 0.00 0.00 0.00 0.00 0.00 0.00 0.00 0.00 0.00 0.00 0.00 0.00 0.00 0.00 0.00 0.00 0.00 0.00 0.00 0.00 0.00 0.00 0.00 0.00 0.00 0.00 0.00
0.02 0.02 0.03 0.01 0.00 0.01 0.00 0.01 0.01 0.01 0.01 0.00 0.01 0.00 0.00 0.01 0.00 0.00 0.00 0.00 0.00 0.00 0.00 0.00 0.00 0.00 0.00 0.00 0.00 0.00 0.00 0.00 0.00 0.00 0.00 0.00 0.00 0.00 0.00 0.00 0.00 0.00 0.00 0.00 0.00
MSLP
1019.24 1018.74 1018.25 1017.80 1017.25 1016.69 1016.19 1015.71 1015.32 1014.90 1014.54 1014.20 1013.78 1013.53 1013.17 1012.79 1012.14 1011.29 1008.63 1006.39 1006.55 1007.35 1007.53 1006.71 1006.44 1005.72 1005.40 1004.84 1004.80 1004.40 1003.32 1000.99 1000.32 1000.62 1000.06 999.98 1000.22 1001.06 1002.09 1003.22 1004.06 1004.64 1005.96 1008.26 1010.26
1019.27 1018.77 1018.22 1017.69 1017.12 1016.54 1015.99 1015.49 1015.01 1014.56 1014.18 1013.81 1013.43 1013.11 1012.86 1012.54 1010.98 1007.91 1005.60 1005.80 1006.21 1006.90 1006.59 1005.41 1005.03 1004.87 1004.46 1004.04 1003.79 1003.22 1001.27 1001.79 1000.01 1000.14 999.76 999.41 999.95 1001.12 1001.89 1002.94 1003.96 1004.64 1006.25 1008.73 1010.15
1019.29 1018.74 1018.15 1017.53 1016.88 1016.26 1015.68 1015.12 1014.61 1014.12 1013.71 1013.39 1013.06 1012.77 1012.55 1012.21 1008.91 1003.70 1003.46 1004.38 1005.67 1006.39 1005.46 1004.62 1004.38 1004.18 1003.57 1002.88 1002.56 1001.81 1001.71 1001.29 999.43 999.22 999.33 999.13 999.91 1000.94 1001.54 1002.30 1003.44 1004.83 1006.54 1008.45 1009.85
1019.26 1018.65 1018.00 1017.32 1016.62 1015.95 1015.27 1014.61 1014.05 1013.58 1013.11 1012.86 1012.63 1012.47 1012.36 1011.25 1005.90 1003.24 1003.90 1004.35 1005.16 1005.57 1004.92 1003.86 1003.59 1003.23 1002.48 1001.66 1001.36 1000.97 1000.30 999.34 998.91 999.54 998.69 999.01 999.30 1000.14 1000.88 1001.43 1003.10 1004.78 1006.48 1007.86 1009.08
1019.26 1018.55 1017.73 1017.00 1016.28 1015.54 1014.79 1014.06 1013.32 1012.75 1012.35 1012.08 1012.10 1012.19 1011.89 1008.54 1004.28 1003.23 1004.19 1004.86 1005.12 1005.00 1003.72 1002.92 1002.56 1002.19 1001.45 1000.63 1000.57 1000.39 999.95 999.70 999.31 999.19 998.85 998.81 999.23 999.98 1000.77 1001.75 1003.15 1004.82 1006.35 1007.42 1008.43
1019.16 1018.44 1017.60 1016.74 1015.94 1015.11 1014.31 1013.44 1012.62 1011.87 1011.42 1011.27 1011.47 1011.83 1010.29 1005.97 1002.15 1002.14 1003.18 1004.37 1003.64 1003.74 1002.58 1002.31 1001.73 1001.61 1000.92 999.92 1000.03 999.76 999.79 999.10 998.88 998.77 998.75 998.75 998.99 1000.04 1000.48 1001.89 1003.23 1004.75 1005.95 1006.92 1007.72
1019.11 1018.29 1017.48 1016.52 1015.62 1014.61 1013.79 1012.97 1012.06 1011.13 1010.51 1010.40 1010.84 1010.69 1007.71 1003.67 1002.14 1002.25 1002.64 1003.02 1002.63 1002.44 1001.55 1001.62 1001.37 1001.27 1000.50 999.91 999.76 999.43 999.31 999.23 998.69 998.28 998.12 998.43 998.58 999.12 999.81 1001.56 1003.07 1004.39 1005.52 1006.36 1007.02
1019.07 1018.21 1017.33 1016.35 1015.36 1014.31 1013.29 1012.49 1011.63 1010.74 1010.30 1010.08 1010.56 1009.73 1004.97 1001.78 1002.16 1002.36 1002.02 1002.22 1002.02 1001.99 1001.30 1001.32 1001.27 1000.93 1000.46 999.80 999.85 999.61 999.06 997.89 997.67 997.89 997.83 998.43 998.27 999.03 1000.11 1001.13 1002.57 1003.78 1004.80 1005.76 1006.45
1019.10 1018.19 1017.28 1016.23 1015.04 1013.70 1012.51 1011.95 1011.31 1010.67 1010.32 1010.32 1009.76 1008.05 1003.19 1002.36 1001.89 1001.40 1001.43 1001.19 1001.27 1001.49 1001.25 1001.01 1001.20 1001.07 1000.79 999.91 999.41 998.72 997.56 997.23 996.69 996.80 997.12 997.99 999.46 1000.30 999.73 1000.54 1001.75 1003.02 1004.08 1004.94 1005.85
1018.96 1018.07 1016.96 1015.99 1014.88 1013.44 1011.85 1010.51 1010.39 1010.75 1010.08 1008.96 1007.60 1006.54 1002.40 1000.20 999.86 1000.51 1000.79 1000.74 1000.60 1000.98 1001.05 1000.92 1000.90 1000.54 999.99 999.05 997.54 996.97 996.98 995.91 995.53 995.80 996.58 997.12 998.52 1000.01 998.46 999.64 1000.76 1002.26 1003.32 1004.22 1004.92
1018.94 1018.07 1017.06 1015.82 1014.73 1013.11 1011.90 1008.04 1009.67 1008.97 1007.56 1005.36 1003.80 1002.14 1000.07 999.55 1000.14 1000.12 1000.12 1000.19 1000.26 1000.46 999.94 1000.39 999.97 998.32 998.28 998.39 997.91 996.45 995.90 995.29 994.96 995.16 996.02 996.58 997.18 997.98 998.03 998.60 999.31 1000.75 1002.17 1003.13 1003.93
1018.84 1017.89 1017.11 1015.86 1014.50 1013.24 1011.45 1010.39 1011.58 1011.68 1007.74 1004.93 1002.74 1001.90 1000.87 999.96 999.36 999.43 999.96 999.59 999.18 998.68 999.60 999.63 997.71 998.01 998.31 997.93 997.60 996.72 995.32 994.78 994.63 995.33 995.63 995.86 996.13 996.64 996.72 997.29 998.27 998.99 1000.80 1001.91 1003.02
1018.77 1017.66 1016.74 1015.69 1014.38 1012.43 1011.43 1011.43 1011.27 1010.80 1007.96 1001.99 999.95 999.21 999.12 999.90 998.58 997.71 998.84 998.50 998.20 997.94 997.80 996.97 996.47 997.63 997.25 996.95 996.93 996.48 995.55 994.86 994.73 994.82 994.99 995.63 995.69 995.59 995.53 996.06 997.06 997.97 999.45 1000.67 1001.62
1018.84 1017.75 1016.56 1015.31 1014.31 1012.04 1010.87 1011.35 1010.81 1010.64 1006.84 999.36 997.84 997.13 997.74 998.40 997.61 997.16 997.63 997.65 997.23 996.64 996.87 996.47 996.04 996.03 996.18 995.90 996.16 995.57 995.90 995.64 995.29 994.80 994.34 995.51 994.64 994.72 994.77 995.27 996.20 997.10 997.66 999.07 1000.33
1018.92 1017.97 1016.94 1016.65 1014.43 1011.91 1011.97 1011.11 1010.77 1010.09 1004.21 997.52 997.61 997.80 996.86 996.96 994.77 995.74 996.35 997.01 995.66 995.70 996.11 994.62 994.72 994.87 995.03 994.92 995.50 995.01 995.54 996.04 995.78 995.18 994.79 994.42 994.17 992.76 993.50 993.95 994.69 995.78 996.38 997.25 998.71
1018.58 1017.76 1017.07 1014.16 1012.88 1011.95 1011.70 1010.91 1010.14 1007.88 1001.17 997.40 997.56 997.41 997.21 996.96 995.47 994.36 995.46 996.53 996.27 995.40 994.97 994.31 994.34 994.13 994.02 994.78 995.11 995.72 995.73 995.57 995.99 995.77 994.45 994.01 993.23 992.20 991.95 992.40 993.03 994.27 995.21 996.11 997.13
1018.24 1017.38 1017.07 1015.23 1012.92 1012.11 1011.49 1009.97 1008.00 1005.05 999.87 1000.11 999.76 998.99 997.44 995.99 995.67 994.48 994.80 995.17 994.21 994.21 993.21 993.72 993.08 993.54 993.60 993.92 994.55 995.24 995.08 994.52 994.31 993.78 992.77 993.41 992.84 991.97 991.52 991.61 991.96 992.72 993.91 994.95 996.10
1017.91 1016.73 1014.99 1013.51 1012.56 1012.02 1011.07 1009.30 1007.07 1004.77 1002.81 1003.48 1002.92 1001.43 999.38 997.45 995.00 994.53 994.20 993.99 994.36 993.34 992.61 992.23 992.19 991.94 992.43 992.47 992.96 993.84 993.83 992.63 992.00 991.98 992.18 992.61 990.74 990.69 991.51 991.34 991.26 991.66 992.41 993.74 994.98
1017.66 1013.88 1012.91 1012.73 1012.38 1011.90 1010.37 1007.86 1005.94 1006.02 1006.18 1005.81 1004.63 1001.36 998.34 996.94 996.37 994.53 994.09 993.49 993.35 993.32 992.14 990.81 990.45 990.63 991.50 992.38 992.48 992.60 992.34 992.62 991.83 991.14 990.55 989.93 990.07 990.54 990.36 990.33 991.01 991.53 991.69 992.28 993.63
1017.53 1013.66 1012.39 1012.46 1012.07 1011.13 1009.44 1007.90 1007.36 1007.99 1008.13 1007.78 1006.45 1004.40 1001.47 999.97 998.02 996.40 994.40 993.67 993.20 993.18 992.88 990.88 990.12 990.00 990.54 991.63 991.83 991.19 992.17 992.46 991.41 990.02 988.93 988.60 988.21 988.23 989.16 989.73 989.99 990.66 991.38 991.66 992.52
1016.36 1012.74 1011.94 1012.16 1011.31 1009.83 1008.39 1008.40 1009.22 1009.54 1009.24 1008.70 1007.67 1006.34 1004.85 1004.46 1002.90 999.08 996.03 995.91 995.36 993.60 993.18 992.09 990.44 989.16 989.37 989.27 989.55 990.79 990.22 990.81 991.02 990.19 989.03 988.21 987.60 987.72 987.88 988.88 989.61 990.16 990.60 991.19 991.69
1015.52 1012.67 1011.96 1012.18 1010.22 1009.41 1009.34 1010.00 1010.67 1009.75 1009.49 1009.18 1008.89 1007.90 1006.61 1005.64 1004.23 1002.28 999.44 997.39 998.43 996.74 994.05 992.27 991.44 989.89 987.68 988.87 989.83 989.88 989.82 989.85 989.77 989.74 989.29 988.37 987.29 987.47 987.50 988.17 988.90 989.80 990.11 990.54 991.13
1016.00 1013.22 1011.88 1011.88 1010.49 1010.28 1010.37 1010.80 1010.16 1010.05 1009.98 1010.35 1010.43 1010.54 1009.11 1007.44 1006.68 1004.17 1002.77 1000.65 999.89 998.18 996.71 994.77 992.49 990.26 988.60 988.29 988.94 988.77 988.85 989.00 989.65 989.64 988.72 988.69 987.78 988.64 988.95 989.14 988.95 989.55 989.92 990.32 990.78
1016.92 1013.85 1012.09 1012.02 1011.64 1011.64 1011.50 1011.61 1010.68 1010.57 1010.64 1010.84 1011.02 1011.29 1010.47 1008.12 1006.89 1005.80 1004.46 1002.99 1001.25 1000.05 999.82 998.27 994.01 990.81 987.58 986.61 987.91 988.51 988.23 988.53 988.43 988.35 988.21 988.21 988.17 988.77 989.22 989.62 990.10 990.16 990.21 990.45 991.07
1018.72 1017.09 1015.88 1014.72 1013.44 1013.57 1013.41 1012.24 1011.28 1011.29 1011.19 1010.94 1011.15 1012.21 1011.94 1010.29 1008.36 1007.79 1006.54 1004.48 1001.88 1000.93 999.55 997.89 995.20 992.78 990.25 988.67 988.31 987.63 988.03 987.83 987.67 987.93 987.80 987.69 988.28 988.44 989.14 989.77 990.39 990.89 991.51 991.84 992.09
1020.80 1019.92 1018.08 1017.07 1015.73 1014.77 1013.63 1012.89 1011.97 1011.82 1011.83 1011.06 1010.88 1011.94 1011.64 1010.90 1010.42 1009.22 1008.13 1006.26 1003.58 1001.93 1000.26 998.81 996.70 994.55 991.92 990.44 990.26 989.43 987.81 988.00 987.80 988.31 988.34 988.47 987.98 988.54 989.33 990.15 990.94 991.72 992.16 992.43 992.48
1021.60 1021.22 1020.33 1018.21 1016.63 1015.68 1014.32 1013.43 1012.95 1012.25 1011.74 1011.43 1011.26 1010.86 1010.10 1010.11 1009.50 1008.59 1008.19 1006.55 1004.91 1003.79 1002.41 1000.58 997.97 995.74 993.54 992.32 991.58 990.23 989.11 988.82 988.21 988.21 988.73 988.26 988.96 989.17 989.65 990.27 991.25 992.20 992.64 992.73 992.82
Thickness
5720 5723 5726 5728 5731 5736 5739 5742 5744 5747 5749 5751 5755 5756 5759 5763 5768 5777 5790 5815 5815 5810 5810 5816 5815 5819 5821 5815 5819 5823 5798 5814 5822 5817 5826 5848 5835 5845 5845 5824 5825 5827 5815 5806 5797
5716 5719 5722 5726 5729 5733 5737 5741 5744 5747 5750 5753 5755 5758 5760 5762 5775 5792 5822 5821 5819 5814 5811 5812 5808 5814 5808 5812 5817 5812 5816 5798 5842 5826 5838 5846 5840 5832 5827 5820 5815 5820 5820 5806 5797
5712 5715 5719 5723 5727 5731 5735 5740 5744 5748 5751 5754 5756 5758 5761 5763 5784 5820 5836 5830 5821 5816 5821 5824 5821 5814 5805 5819 5820 5825 5782 5803 5850 5859 5843 5850 5838 5841 5825 5814 5820 5810 5807 5802 5794
5708 5712 5716 5720 5725 5730 5734 5739 5744 5749 5753 5754 5756 5757 5758 5768 5784 5829 5829 5826 5821 5819 5820 5821 5817 5806 5806 5810 5829 5817 5836 5847 5853 5851 5859 5840 5851 5835 5835 5833 5836 5825 5815 5805 5796
5704 5708 5714 5718 5723 5728 5733 5739 5745 5751 5755 5757 5755 5756 5760 5779 5802 5830 5824 5819 5817 5816 5818 5818 5812 5812 5806 5822 5827 5821 5831 5843 5848 5850 5853 5857 5844 5835 5832 5840 5839 5827 5814 5806 5801
5700 5704 5710 5715 5720 5726 5731 5738 5745 5752 5757 5758 5756 5754 5765 5776 5838 5838 5831 5818 5822 5818 5823 5824 5819 5825 5819 5827 5822 5836 5835 5843 5850 5849 5852 5845 5846 5840 5838 5840 5830 5820 5811 5809 5805
5693 5699 5704 5711 5717 5724 5730 5736 5743 5751 5757 5759 5755 5759 5776 5795 5833 5833 5830 5822 5828 5825 5821 5830 5832 5819 5828 5819 5839 5837 5820 5832 5840 5851 5851 5858 5836 5834 5841 5840 5824 5817 5813 5811 5809
5684 5690 5697 5704 5712 5720 5728 5735 5741 5747 5752 5755 5751 5758 5784 5827 5828 5823 5828 5823 5830 5830 5831 5834 5834 5824 5819 5835 5822 5814 5822 5812 5843 5849 5856 5850 5823 5842 5851 5838 5821 5817 5814 5810 5810
5675 5680 5687 5696 5706 5716 5726 5731 5736 5741 5745 5745 5751 5760 5785 5818 5810 5824 5827 5818 5823 5825 5828 5833 5824 5808 5811 5800 5797 5811 5802 5814 5831 5859 5856 5844 5796 5801 5850 5841 5825 5819 5815 5813 5810
5667 5672 5679 5686 5695 5708 5721 5732 5733 5732 5739 5748 5759 5754 5793 5803 5822 5820 5826 5823 5815 5812 5807 5807 5802 5792 5799 5799 5781 5803 5807 5832 5833 5854 5854 5843 5826 5820 5851 5845 5832 5823 5819 5815 5814
5657 5661 5667 5676 5684 5698 5710 5739 5735 5736 5745 5758 5773 5781 5802 5816 5818 5808 5818 5812 5810 5802 5788 5796 5783 5788 5802 5809 5816 5829 5831 5831 5853 5862 5849 5842 5840 5841 5854 5850 5842 5832 5825 5822 5821
5646 5651 5655 5663 5672 5684 5699 5700 5689 5690 5717 5749 5766 5774 5788 5802 5790 5800 5811 5794 5796 5789 5792 5785 5789 5806 5810 5813 5811 5817 5827 5835 5855 5854 5850 5847 5843 5855 5862 5856 5851 5846 5833 5830 5827
5633 5639 5643 5651 5660 5675 5680 5676 5682 5685 5696 5757 5778 5780 5784 5783 5784 5797 5800 5799 5791 5787 5793 5793 5808 5810 5808 5805 5797 5806 5814 5827 5834 5853 5858 5841 5830 5846 5867 5869 5861 5858 5848 5842 5837
5613 5618 5624 5634 5645 5660 5663 5663 5668 5672 5683 5754 5769 5779 5782 5780 5774 5804 5807 5798 5792 5789 5796 5795 5817 5807 5803 5801 5807 5795 5824 5824 5826 5829 5816 5840 5804 5836 5856 5853 5854 5855 5856 5849 5845
5590 5592 5596 5596 5614 5630 5633 5641 5649 5655 5676 5750 5751 5778 5779 5769 5802 5790 5811 5790 5788 5793 5792 5799 5805 5805 5797 5809 5815 5811 5827 5814 5816 5816 5823 5825 5817 5852 5860 5849 5853 5858 5863 5863 5858
5578 5579 5578 5594 5599 5604 5607 5618 5628 5632 5662 5723 5732 5734 5741 5753 5770 5791 5784 5788 5794 5787 5796 5802 5823 5817 5817 5819 5817 5819 5811 5813 5809 5803 5780 5814 5826 5836 5856 5862 5869 5868 5870 5869 5868
5574 5575 5571 5575 5583 5587 5588 5595 5601 5616 5700 5669 5672 5697 5716 5736 5744 5762 5762 5758 5764 5755 5772 5791 5802 5816 5819 5802 5813 5803 5794 5772 5766 5772 5777 5825 5815 5832 5870 5881 5883 5878 5875 5876 5875
5568 5572 5578 5582 5582 5580 5579 5579 5570 5613 5637 5621 5628 5651 5674 5709 5740 5745 5748 5751 5763 5775 5778 5769 5764 5803 5818 5810 5802 5796 5797 5783 5757 5772 5793 5824 5811 5834 5869 5883 5892 5894 5891 5884 5879
5561 5586 5581 5577 5573 5571 5567 5572 5587 5576 5571 5568 5596 5641 5684 5708 5708 5732 5734 5747 5761 5769 5761 5777 5783 5822 5818 5818 5816 5801 5792 5823 5810 5829 5818 5835 5842 5859 5874 5876 5877 5879 5886 5888 5884
5554 5574 5574 5568 5564 5562 5560 5556 5561 5553 5552 5555 5563 5598 5624 5646 5674 5698 5722 5743 5751 5764 5778 5788 5775 5810 5812 5813 5813 5814 5825 5784 5803 5786 5797 5831 5839 5840 5852 5858 5874 5874 5876 5888 5892
5552 5566 5567 5559 5559 5559 5555 5546 5535 5531 5530 5528 5538 5558 5580 5578 5590 5648 5702 5705 5714 5739 5759 5774 5779 5793 5810 5795 5799 5799 5803 5808 5816 5815 5802 5808 5833 5877 5872 5869 5866 5873 5883 5887 5893
5550 5551 5556 5548 5546 5547 5538 5525 5509 5516 5517 5514 5518 5535 5558 5570 5581 5604 5642 5669 5675 5702 5724 5763 5757 5758 5799 5815 5819 5815 5809 5813 5794 5789 5815 5831 5845 5882 5884 5881 5878 5875 5884 5894 5898
5535 5543 5550 5541 5531 5528 5524 5511 5511 5504 5501 5492 5492 5495 5521 5542 5541 5582 5595 5634 5653 5675 5687 5720 5736 5741 5770 5801 5804 5798 5813 5822 5819 5821 5805 5802 5830 5865 5866 5865 5876 5876 5883 5889 5895
5519 5526 5532 5527 5526 5514 5504 5494 5497 5499 5492 5489 5486 5486 5496 5531 5552 5564 5577 5597 5630 5647 5657 5679 5720 5745 5773 5798 5805 5787 5804 5815 5819 5803 5811 5816 5832 5837 5850 5851 5857 5867 5877 5882 5885
5494 5493 5495 5490 5499 5490 5484 5488 5488 5480 5485 5488 5481 5465 5470 5493 5518 5523 5541 5574 5617 5633 5656 5676 5692 5729 5764 5795 5796 5804 5799 5809 5806 5816 5807 5833 5826 5844 5848 5851 5853 5859 5861 5861 5865
5465 5464 5476 5471 5476 5476 5479 5476 5479 5476 5472 5478 5479 5466 5473 5480 5485 5497 5515 5537 5578 5603 5631 5659 5671 5704 5731 5758 5754 5758 5795 5801 5810 5810 5816 5824 5830 5857 5855 5856 5848 5846 5848 5848 5858
5458 5451 5445 5458 5467 5465 5471 5472 5468 5470 5472 5473 5471 5471 5480 5481 5492 5508 5515 5536 5563 5573 5591 5620 5658 5677 5693 5728 5729 5729 5764 5778 5797 5812 5809 5802 5822 5843 5836 5839 5839 5838 5841 5844 5851